Location: Unspecified
(58.9933°N, 5.6375°E)
Time: 05:48:39
(UTC+02:00)

Cosmos 2058 - Pass Details

Date: 24 January 2018
Orbit: 564 x 584 km, 82.5° (Epoch: 25 May)

Event Time Altitude Azimuth Distance (km) Brightness Sun altitude
Rises 19:53:07 0° 206° (SSW) 2,797 6.7 -24.4°
Reaches altitude 10° 19:55:21 10° 211° (SSW) 1,904 5.9 -24.7°
Maximum altitude 19:59:28 53° 289° (WNW) 723 3.6 -25.2°
Enters shadow 20:01:19 30° 352° (N) 1,071 4.3 -25.5°
